Location: Barrio Las Umbrías
(40.4173°N, 4.8685°W)
Time: 11:58:10
(UTC+00:00)

COSMOS 2406 - Pass Details

Date: 17 August 2022
Orbit: 845 x 861 km, 71.0° (Epoch: 27 September)

Event Time Altitude Azimuth Distance (km) Brightness Sun altitude
Rises 22:57:05 0° 335° (NNW) 3,413 7.5 -32.8°
Reaches altitude 10° 22:59:33 10° 334° (NNW) 2,474 6.5 -33.0°
Enters shadow 23:03:39 49° 324° (NW) 1,082 4.0 -33.3°
